Temp
68 63 61 62 60 59 57 55 54 60 59 56 56 56 59 52 53 51 51 52 53 54 57 59 59 60 59 60 60 59 58 60 61 60 57 56 54 56 57 58 62 66 67 64
65 60 61 59 58 56 56 54 55 59 59 55 56 55 53 50 50 50 49 51 52 54 55 56 57 58 57 57 59 59 58 58 59 59 59 57 55 54 56 57 58 58 65 65
56 62 59 56 57 55 56 53 51 48 54 58 56 52 46 49 51 51 52 53 54 52 51 53 54 55 56 56 56 57 58 57 58 58 59 57 56 53 51 52 51 54 54 62
58 61 54 55 54 53 48 51 50 48 47 43 55 39 48 46 48 49 49 51 51 52 52 52 52 53 54 54 55 56 57 56 56 57 56 54 52 49 51 50 50 51 53 54
56 55 53 51 53 51 52 51 49 49 46 47 47 43 50 49 46 45 48 49 50 51 50 51 51 52 54 54 53 54 55 55 55 55 56 54 53 53 53 50 49 50 51 53
55 55 53 54 51 50 51 51 52 52 49 35 45 41 45 47 44 43 47 48 48 49 50 50 52 52 52 53 52 52 53 53 53 54 55 54 52 52 51 49 48 47 49 52
53 52 51 51 48 51 51 48 37 36 37 35 44 37 43 44 44 44 45 46 47 49 48 48 48 49 49 48 49 50 50 48 51 50 52 52 52 52 51 50 47 46 44 44
46 44 47 50 48 46 46 45 35 25 29 33 39 30 41 47 48 48 49 47 47 47 47 47 47 47 47 47 47 45 43 43 45 46 47 50 51 52 52 51 48 47 44 44
46 44 46 45 48 47 43 39 43 33 31 25 35 42 44 46 46 46 45 45 44 44 45 45 46 45 45 45 44 42 38 37 37 38 39 39 46 51 50 51 51 47 47 45
48 39 45 42 46 45 43 46 32 34 20 20 34 35 38 39 39 41 41 41 42 43 43 44 44 44 45 43 40 37 35 33 33 33 35 37 39 41 43 50 49 48 47 45
46 42 38 40 39 42 38 37 36 36 33 22 21 32 44 39 40 38 40 41 41 42 42 42 42 44 42 40 37 34 32 31 31 32 33 34 35 37 39 42 50 49 48 45
44 41 35 40 43 42 40 39 39 28 27 28 26 25 46 44 43 41 40 41 42 42 42 42 42 41 38 36 34 31 30 30 30 31 30 31 33 35 37 39 40 49 48 46
40 36 29 30 35 37 34 38 40 38 32 24 20 26 43 44 45 42 39 40 41 40 40 41 39 37 35 33 30 30 29 27 28 28 28 29 29 31 33 35 37 39 41 46
43 38 35 32 38 36 30 34 36 33 25 25 26 29 37 40 39 39 38 39 39 38 39 37 36 34 33 31 28 27 27 26 26 26 25 25 28 29 30 32 33 33 36 39
40 31 35 36 38 37 34 33 33 29 31 26 29 30 36 39 37 37 38 39 37 37 36 34 33 32 31 28 26 25 24 24 23 22 22 21 24 25 27 28 28 30 31 36
37 29 32 24 31 32 28 31 32 32 32 31 29 27 39 41 40 37 36 36 34 35 33 32 31 30 28 26 24 24 22 21 20 18 17 20 21 21 25 26 26 27 29 31
32 30 23 20 27 24 19 27 30 32 34 31 24 32 39 36 34 34 34 34 34 32 30 30 29 28 26 24 24 20 20 19 17 16 16 17 18 19 24 26 25 25 28 31
31 28 23 19 20 13 30 35 34 32 35 36 35 36 37 35 36 36 37 34 31 29 28 28 27 26 25 24 22 20 18 17 15 15 15 17 17 18 20 22 25 26 28 29
36 26 20 16 16 24 29 34 29 26 28 35 34 36 35 36 34 33 39 33 29 28 28 27 26 25 23 21 20 17 15 16 15 14 15 16 15 14 17 18 23 25 26 29
32 32 24 18 13 13 27 31 35 32 21 37 36 33 33 32 22 30 34 30 28 28 26 24 24 22 20 19 18 14 13 13 12 13 13 15 14 13 14 16 19 25 26 29
20 20 16 17 15 21 34 34 35 18 25 34 35 34 32 27 31 32 31 28 27 25 23 24 20 18 17 17 15 11 11 10 12 13 12 12 13 12 13 15 18 25 26 29
20 17 17 18 16 13 38 31 25 35 36 37 35 34 29 29 28 27 27 24 22 20 20 19 16 14 15 15 12 8 8 11 11 9 8 9 11 15 17 16 19 27 28 29
19 26 22 24 24 36 37 37 38 38 36 35 32 32 27 24 25 24 21 19 18 17 17 16 12 11 12 13 10 6 8 9 7 4 6 11 16 19 22 20 21 28 29 31
27 32 25 26 31 33 36 38 39 37 35 34 30 27 23 21 21 16 16 16 14 15 13 12 9 8 7 9 9 7 6 6 2 3 9 13 13 16 20 25 26 31 32 34
30 31 27 28 33 35 37 38 39 35 31 27 24 23 21 19 15 15 13 12 13 12 11 9 7 6 5 6 6 6 4 2 1 4 11 11 13 14 17 23 29 31 35 36
33 31 27 26 36 35 36 38 38 34 28 27 24 19 17 14 14 13 10 11 10 8 8 5 4 3 3 3 2 2 1 -0 1 4 8 9 11 12 15 17 20 34 37 37
MSLP
1011.50 1011.27 1010.28 1010.40 1011.25 1011.27 1011.26 1011.17 1010.98 1010.65 1011.48 1011.75 1011.44 1011.48 1012.27 1015.39 1016.41 1017.24 1017.88 1017.87 1017.78 1017.57 1017.83 1017.72 1017.42 1016.96 1016.46 1015.92 1015.40 1014.88 1014.36 1013.70 1012.81 1011.61 1010.89 1010.35 1009.71 1008.69 1007.76 1007.01 1006.15 1004.93 1004.65 1004.38
1011.33 1010.77 1011.37 1011.96 1011.93 1011.97 1011.62 1011.18 1010.94 1010.86 1011.45 1011.83 1011.16 1011.23 1012.81 1015.10 1016.31 1017.15 1017.76 1017.69 1017.64 1017.86 1017.80 1017.38 1017.01 1016.81 1016.46 1016.01 1015.46 1014.59 1014.16 1013.61 1012.74 1011.85 1010.76 1010.25 1009.72 1009.06 1007.95 1006.59 1005.80 1005.15 1004.04 1003.86
1011.96 1011.36 1012.24 1012.46 1012.23 1012.11 1011.95 1011.65 1011.85 1012.28 1012.05 1011.60 1010.62 1010.62 1012.66 1014.94 1016.10 1016.84 1017.35 1017.52 1017.51 1017.65 1017.35 1017.07 1016.87 1016.86 1016.48 1016.03 1015.41 1014.70 1013.91 1013.23 1012.58 1011.67 1010.53 1009.64 1008.94 1008.35 1007.77 1006.71 1005.91 1004.60 1004.49 1003.27
1012.42 1012.33 1012.87 1012.95 1012.77 1013.13 1012.59 1012.97 1012.75 1012.29 1012.05 1011.30 1012.14 1010.85 1011.71 1014.07 1015.31 1016.38 1016.88 1017.21 1017.55 1017.32 1017.02 1016.88 1016.67 1016.47 1016.12 1015.63 1014.81 1014.00 1012.99 1012.38 1011.76 1010.85 1009.94 1009.19 1008.35 1007.71 1007.34 1006.63 1005.91 1004.79 1004.75 1003.99
1012.57 1013.09 1013.44 1013.60 1013.61 1013.99 1013.20 1013.60 1013.37 1012.81 1012.06 1011.35 1011.36 1011.49 1010.41 1012.81 1014.08 1015.75 1016.66 1017.16 1017.31 1017.24 1017.22 1016.81 1016.74 1016.44 1015.87 1015.23 1014.34 1013.33 1012.32 1011.56 1010.85 1010.04 1009.21 1008.31 1007.39 1006.88 1006.49 1006.17 1005.49 1004.74 1003.57 1002.81
1013.27 1014.23 1014.38 1014.25 1014.68 1014.81 1014.44 1013.56 1012.84 1011.88 1011.63 1011.56 1010.66 1011.78 1010.73 1012.24 1014.06 1015.54 1016.24 1016.69 1017.03 1017.15 1017.11 1017.17 1017.15 1016.59 1015.77 1014.86 1014.01 1012.99 1011.93 1011.12 1010.13 1009.31 1008.36 1007.33 1006.66 1006.00 1005.49 1005.14 1005.10 1004.40 1003.03 1002.76
1013.33 1013.81 1014.80 1015.23 1014.96 1015.01 1014.74 1014.16 1012.97 1011.86 1011.79 1011.20 1011.89 1012.37 1010.83 1012.68 1014.54 1015.69 1016.33 1016.67 1017.19 1017.34 1017.24 1017.02 1016.58 1016.03 1015.49 1014.58 1013.56 1012.53 1011.67 1010.60 1010.02 1008.98 1008.02 1006.90 1006.10 1005.28 1004.73 1004.06 1004.03 1003.94 1003.70 1003.06
1013.74 1013.66 1014.96 1015.75 1015.79 1015.68 1015.65 1015.61 1015.66 1014.55 1013.74 1013.02 1013.81 1012.32 1011.53 1012.74 1014.59 1015.60 1016.18 1016.82 1017.13 1017.33 1017.38 1017.09 1016.71 1016.23 1015.54 1014.62 1013.77 1013.14 1012.43 1011.05 1010.34 1009.02 1007.82 1006.54 1005.53 1004.41 1003.99 1003.36 1003.21 1003.18 1003.60 1003.04
1014.43 1014.69 1015.92 1016.59 1016.64 1016.84 1016.42 1016.71 1017.25 1016.75 1016.25 1015.71 1012.72 1011.66 1012.41 1013.26 1014.22 1015.36 1016.27 1016.63 1017.19 1017.60 1017.50 1017.20 1016.58 1016.09 1015.28 1014.50 1013.81 1013.52 1012.87 1011.96 1011.16 1010.15 1008.95 1007.96 1006.05 1004.14 1003.40 1002.58 1002.05 1002.21 1002.37 1002.57
1015.74 1015.87 1016.11 1017.18 1017.53 1017.63 1017.28 1017.49 1018.07 1018.38 1017.54 1015.65 1012.67 1012.30 1012.20 1013.57 1014.72 1015.73 1015.96 1016.84 1017.36 1017.40 1017.13 1016.66 1016.16 1015.70 1014.81 1014.37 1013.94 1013.63 1013.46 1012.48 1011.49 1010.56 1009.34 1008.05 1006.81 1005.38 1004.27 1001.93 1001.37 1001.29 1001.37 1001.44
1016.98 1017.29 1017.30 1017.88 1017.22 1016.72 1017.96 1017.89 1018.31 1018.47 1018.02 1017.12 1015.15 1012.34 1012.83 1014.04 1015.20 1016.02 1016.60 1016.86 1017.08 1016.78 1016.30 1015.84 1015.33 1014.85 1014.74 1014.45 1014.13 1013.56 1013.09 1012.27 1011.29 1010.35 1009.05 1007.79 1006.73 1005.59 1004.46 1002.97 1000.63 1000.13 1000.22 1000.81
1017.52 1017.51 1017.24 1016.66 1017.03 1017.61 1017.57 1017.43 1017.60 1017.77 1017.82 1017.59 1016.95 1012.75 1013.33 1013.82 1015.04 1015.98 1016.31 1016.75 1016.97 1016.90 1016.57 1015.93 1015.53 1015.30 1015.10 1014.86 1014.22 1013.49 1012.81 1011.99 1011.21 1010.09 1009.04 1007.71 1006.65 1005.55 1004.02 1002.89 1001.44 999.65 999.04 999.32
1018.01 1017.66 1017.34 1016.89 1017.94 1018.16 1017.74 1017.52 1017.66 1017.94 1018.21 1017.33 1017.46 1013.17 1013.64 1014.06 1013.89 1015.55 1016.31 1016.76 1016.91 1016.84 1016.44 1015.83 1015.49 1015.24 1015.06 1014.41 1014.04 1013.29 1012.75 1011.89 1010.90 1010.04 1008.65 1007.34 1006.21 1005.14 1004.06 1002.95 1001.84 1000.95 1000.09 998.49
1018.51 1017.60 1016.57 1015.60 1015.39 1017.03 1017.71 1017.50 1017.69 1018.03 1017.72 1016.69 1015.32 1013.48 1014.37 1014.52 1015.05 1015.77 1016.44 1016.96 1017.07 1016.96 1016.31 1016.08 1015.54 1015.31 1015.02 1014.61 1014.04 1013.20 1012.31 1011.89 1010.74 1009.70 1008.65 1006.98 1005.60 1004.65 1003.81 1002.78 1001.86 1001.31 1000.22 999.52
1019.17 1018.14 1017.75 1016.87 1016.60 1017.10 1017.33 1017.61 1017.60 1017.47 1016.76 1016.92 1014.20 1014.76 1014.22 1015.13 1015.67 1016.43 1016.71 1016.75 1016.68 1016.36 1016.25 1016.11 1015.46 1015.09 1014.64 1014.25 1013.69 1012.98 1012.38 1011.41 1010.73 1009.41 1008.37 1007.14 1005.60 1004.51 1003.23 1002.20 1001.60 1001.14 1000.14 999.09
1019.08 1018.68 1018.84 1018.47 1018.38 1018.26 1017.31 1017.39 1017.05 1016.52 1016.09 1015.75 1015.53 1014.50 1015.33 1015.74 1016.32 1016.66 1016.91 1017.04 1016.88 1016.52 1016.66 1016.46 1015.78 1015.26 1014.69 1014.51 1013.73 1012.59 1011.89 1010.97 1010.39 1009.31 1008.04 1006.76 1005.43 1003.99 1002.08 1001.22 1000.55 1000.22 999.23 998.25
1018.96 1018.99 1019.86 1018.53 1019.05 1019.23 1017.00 1015.10 1015.03 1014.95 1015.17 1015.31 1015.30 1014.17 1015.08 1015.73 1016.72 1017.09 1016.96 1017.57 1017.36 1017.52 1017.44 1017.26 1016.61 1016.03 1015.38 1014.68 1013.93 1012.78 1011.46 1010.53 1009.58 1008.49 1007.35 1006.26 1004.87 1003.23 1001.45 1000.24 999.51 998.90 998.07 997.30
1018.61 1019.33 1020.25 1019.53 1019.91 1018.35 1014.84 1014.69 1014.68 1014.09 1014.12 1014.44 1014.54 1014.72 1015.34 1016.01 1016.75 1017.16 1017.22 1017.38 1017.69 1018.06 1017.91 1017.54 1017.05 1016.11 1015.27 1014.54 1013.71 1012.62 1011.53 1010.24 1008.95 1007.63 1006.46 1005.34 1004.07 1002.63 1001.31 999.97 998.23 997.61 997.09 996.17
1018.71 1019.76 1020.25 1020.06 1018.97 1015.95 1014.46 1013.86 1014.48 1014.54 1014.11 1014.17 1013.98 1014.84 1015.72 1016.26 1016.61 1016.84 1016.77 1018.12 1018.48 1018.20 1017.98 1017.79 1017.44 1016.67 1015.49 1014.84 1013.64 1012.50 1011.11 1009.85 1008.35 1006.86 1005.51 1004.42 1003.40 1001.99 1000.60 999.13 997.33 996.22 995.99 994.93
1018.93 1019.42 1019.75 1019.55 1018.82 1016.38 1013.66 1014.03 1014.50 1014.98 1013.65 1013.04 1013.87 1015.11 1016.15 1016.89 1016.63 1016.10 1017.19 1018.29 1018.57 1018.72 1018.45 1017.68 1017.11 1016.72 1015.65 1014.65 1013.90 1012.59 1010.96 1009.34 1007.81 1006.40 1004.97 1003.49 1002.25 1000.96 999.57 998.22 996.68 994.83 994.67 993.79
1018.65 1019.18 1018.69 1018.46 1017.72 1015.05 1013.35 1013.76 1014.27 1014.68 1013.56 1013.70 1014.50 1015.37 1016.25 1016.98 1017.10 1017.12 1017.77 1018.30 1018.86 1019.01 1018.52 1017.61 1017.05 1016.67 1016.05 1015.07 1013.94 1012.43 1010.93 1009.19 1007.85 1006.06 1004.40 1002.68 1001.09 999.77 998.36 996.94 995.53 993.62 993.13 992.84
1016.27 1017.20 1017.01 1017.48 1016.49 1013.97 1012.20 1013.85 1013.71 1012.43 1013.14 1013.79 1014.57 1015.37 1016.39 1017.17 1017.76 1018.31 1018.61 1018.95 1018.97 1018.77 1018.47 1018.20 1017.61 1016.78 1015.97 1015.37 1014.41 1012.76 1011.07 1009.29 1007.59 1005.86 1003.83 1001.62 999.57 997.74 996.30 995.38 994.10 992.37 991.98 991.69
1014.71 1013.29 1013.71 1013.53 1011.75 1011.10 1011.04 1010.88 1011.50 1012.19 1013.12 1013.86 1014.99 1015.98 1017.03 1017.84 1018.54 1019.06 1019.33 1019.59 1019.76 1019.77 1019.36 1018.98 1018.52 1017.31 1016.52 1015.64 1014.84 1012.94 1011.21 1009.43 1007.43 1005.55 1002.94 1000.29 998.09 996.28 994.48 993.46 992.43 991.28 990.65 990.09
1012.83 1012.69 1012.50 1012.23 1010.65 1010.75 1011.08 1011.25 1011.67 1012.56 1013.40 1014.41 1015.61 1016.70 1017.79 1018.55 1019.25 1019.79 1019.96 1020.05 1020.23 1020.10 1019.57 1019.20 1018.77 1018.13 1016.88 1015.92 1014.90 1013.84 1012.06 1010.08 1007.90 1005.35 1002.43 999.93 997.87 995.73 993.80 991.84 991.01 989.79 989.11 988.54
1009.98 1010.79 1011.16 1010.34 1010.19 1010.49 1010.76 1010.89 1011.31 1012.52 1013.97 1015.29 1016.38 1017.45 1018.36 1019.13 1019.85 1020.36 1020.56 1020.65 1020.85 1020.65 1020.33 1020.12 1019.76 1019.06 1017.90 1016.65 1015.09 1013.91 1012.52 1010.75 1008.11 1005.44 1002.75 1000.60 998.56 996.53 994.25 992.13 990.11 989.20 988.03 987.77
1008.06 1007.91 1008.64 1008.04 1008.54 1009.43 1009.79 1010.30 1011.08 1012.20 1013.77 1015.40 1016.76 1018.08 1019.00 1019.68 1020.43 1020.95 1021.20 1021.44 1021.46 1021.15 1020.80 1020.66 1020.37 1019.50 1018.35 1017.22 1015.76 1014.32 1013.17 1011.73 1009.08 1005.87 1003.21 1001.40 999.60 997.75 995.81 993.68 991.13 988.89 987.96 987.55
Wind_Speed
4 7 10 4 6 10 10 11 13 14 7 7 12 15 6 13 9 6 7 9 12 15 16 17 17 18 19 20 20 19 20 20 17 13 11 11 13 13 12 11 15 19 17 16
12 13 4 7 6 7 12 16 14 7 3 11 15 16 18 14 7 5 5 9 13 15 18 19 19 20 20 21 22 20 19 20 17 13 12 10 10 13 13 11 9 13 20 17
10 12 3 5 8 13 13 15 9 10 13 17 14 18 16 14 10 5 4 8 12 17 20 20 20 23 21 21 19 20 20 20 19 19 14 12 11 10 11 11 12 12 19 18
10 4 5 8 12 4 12 5 9 14 14 11 17 10 14 19 14 4 5 11 16 21 21 19 22 24 23 22 20 20 20 19 18 20 16 19 15 13 11 13 13 12 15 16
3 5 8 11 7 3 6 9 10 16 19 22 13 8 10 19 15 3 7 13 18 21 20 23 24 24 23 22 21 22 21 22 21 19 19 16 17 12 10 11 17 15 13 14
15 0 3 5 2 3 9 10 17 20 12 7 2 3 7 4 1 3 9 16 22 22 21 23 24 23 23 24 24 22 22 24 21 21 24 21 21 18 14 12 13 10 10 10
6 9 2 3 6 7 8 9 8 4 5 9 10 8 11 11 5 5 12 19 20 19 21 23 26 24 26 28 27 23 24 26 25 24 25 24 22 20 19 17 11 13 8 10
8 9 8 3 3 5 1 3 4 8 7 14 14 10 5 13 8 2 13 19 19 21 21 24 26 24 25 27 26 25 26 25 25 24 23 21 23 13 12 16 11 10 6 5
5 7 4 3 1 2 7 6 5 6 3 6 9 11 7 11 4 7 17 19 19 21 23 25 25 24 25 24 24 25 28 26 26 27 24 24 25 19 15 20 14 10 9 6
1 10 5 5 1 1 4 6 3 4 6 8 8 19 12 7 8 13 20 20 20 23 24 23 21 24 21 24 23 24 24 25 25 25 22 20 22 21 23 17 17 13 10 8
1 5 4 3 10 12 6 6 6 5 4 5 10 6 6 4 5 16 19 19 22 23 25 24 24 24 24 25 24 24 23 24 23 22 22 21 19 21 22 21 18 13 12 9
6 4 10 13 3 6 8 11 14 7 8 9 9 17 13 4 4 13 18 20 22 22 23 23 24 23 23 23 23 23 22 22 21 21 22 22 21 20 19 19 19 18 14 9
9 7 4 5 4 4 6 11 18 16 5 15 11 11 8 11 19 18 19 20 20 22 25 23 23 22 23 24 24 22 22 22 21 22 22 21 22 20 20 20 19 17 19 11
7 7 13 13 13 2 7 14 17 17 13 16 22 30 20 21 17 20 20 20 21 22 23 24 23 23 23 22 23 23 23 22 22 21 22 23 21 21 20 20 19 19 18 18
5 10 14 19 19 16 16 16 18 23 24 23 26 22 21 19 19 17 20 21 23 23 23 24 25 24 24 25 25 24 23 21 23 22 22 22 24 22 22 20 19 19 19 16
6 6 5 6 13 15 20 19 22 24 24 26 25 30 21 18 12 17 20 22 22 21 24 24 27 27 27 25 26 26 25 24 22 23 23 21 23 24 20 19 20 19 19 19
9 6 5 9 4 9 16 22 26 26 21 19 21 24 18 14 13 16 20 19 19 22 23 24 25 24 24 25 26 26 26 25 24 23 22 22 21 23 21 19 19 19 18 17
10 8 5 5 4 11 3 2 1 13 17 18 18 18 15 12 13 14 19 14 19 21 23 22 21 24 25 25 24 25 25 24 24 23 22 21 20 21 21 22 19 18 15 17
8 9 5 5 9 14 15 9 8 10 9 17 17 13 9 13 14 14 9 13 18 21 21 18 19 22 24 24 25 25 26 24 24 23 22 22 21 22 20 20 22 17 15 15
12 12 9 5 6 9 4 8 8 4 12 12 10 8 9 7 11 11 15 14 16 18 19 21 24 23 23 23 24 25 26 25 24 24 25 23 22 21 21 20 21 16 15 14
11 7 16 11 8 11 10 13 6 4 2 13 6 7 7 7 9 16 16 17 16 17 22 23 21 20 23 24 24 25 26 26 26 25 25 24 22 21 20 19 18 14 13 13
15 12 8 10 10 16 12 14 9 3 10 7 5 5 6 8 9 12 14 15 18 21 23 22 19 21 24 23 21 25 26 27 26 26 25 24 22 17 14 15 15 13 12 13
12 11 8 13 10 2 16 8 15 5 4 2 4 3 2 6 8 11 12 13 15 18 18 18 18 23 22 22 21 24 27 27 28 26 25 23 21 18 15 13 13 10 10 11
11 13 6 6 9 14 10 13 6 4 5 3 4 4 3 5 6 8 10 12 14 15 17 17 19 20 24 23 23 22 25 27 27 26 24 21 21 21 17 10 9 8 8 6
9 16 13 14 12 6 8 12 10 9 6 6 5 3 3 3 5 7 9 11 12 14 15 16 17 18 22 23 23 22 24 26 25 24 21 20 17 19 18 16 8 8 7 8
9 10 16 9 11 11 6 6 5 9 10 9 7 6 4 2 4 6 8 9 11 13 15 15 18 19 21 22 22 22 23 24 24 23 18 18 16 16 15 15 16 16 18 17
Wind_Direction
346 295 299 334 328 304 300 289 292 289 111 304 304 300 342 122 137 120 51 25 18 17 1 357 353 352 351 349 339 337 337 329 325 320 317 320 320 314 304 303 306 256 242 223
295 289 23 312 301 292 292 291 297 314 187 309 307 297 132 156 138 117 38 22 14 1 353 351 353 353 350 347 334 327 328 328 317 312 311 306 305 309 303 293 304 330 250 229
284 294 327 287 295 295 287 302 319 299 305 280 285 281 154 172 152 138 50 5 3 357 353 354 356 349 340 338 330 322 318 319 310 305 301 303 292 297 307 312 304 320 336 243
283 8 302 285 278 301 296 14 316 304 309 302 319 290 168 180 177 129 25 9 357 352 358 355 348 344 338 327 322 313 306 309 303 297 293 296 296 292 294 301 308 306 294 310
300 296 290 281 304 331 301 342 303 289 284 299 275 242 257 165 199 100 12 3 358 355 350 350 344 333 331 320 316 309 306 307 299 294 288 290 289 290 285 290 300 299 291 298
269 47 257 294 265 268 304 285 298 274 267 260 127 272 234 175 161 1 359 359 355 350 345 339 335 325 320 319 314 306 309 303 304 299 295 287 286 291 288 280 290 305 308 305
190 214 165 249 258 208 260 307 311 296 227 276 151 314 249 140 127 37 357 357 349 344 338 336 329 328 324 319 320 315 316 317 306 308 295 293 290 281 285 281 282 296 305 311
274 263 185 137 275 344 330 294 266 288 296 296 315 253 294 132 140 30 356 356 347 339 334 331 328 325 321 322 320 325 314 316 323 313 304 294 289 276 283 275 265 278 267 281
251 246 124 31 344 288 136 215 14 291 259 276 235 237 140 158 212 357 344 350 343 333 330 328 325 323 323 321 323 328 323 313 309 307 307 311 315 292 279 279 266 265 268 253
27 284 171 114 225 149 270 120 177 198 269 268 266 300 272 186 344 341 346 340 335 329 324 326 326 322 326 330 327 326 320 314 312 310 307 305 309 303 313 276 269 254 265 257
158 239 139 151 208 225 182 214 222 290 242 264 301 279 112 12 0 345 333 336 332 329 330 329 326 332 330 329 327 323 321 316 312 309 306 307 304 303 306 309 274 258 260 242
186 250 253 245 49 288 276 246 214 217 211 226 268 275 281 218 358 344 334 332 331 329 327 320 331 328 327 326 326 322 319 314 312 309 310 304 303 301 296 299 296 296 254 227
172 205 249 232 238 178 216 221 235 235 312 243 251 255 154 211 330 341 330 326 325 328 319 327 324 328 327 329 326 322 319 317 312 309 302 303 301 300 298 295 290 318 315 266
189 228 230 256 298 98 213 214 216 212 239 259 239 271 274 292 315 325 320 322 322 320 325 324 322 324 326 328 326 321 317 318 313 307 307 300 300 304 296 295 294 290 296 300
221 252 241 262 274 279 259 255 222 221 236 243 270 263 279 299 316 321 314 319 323 317 327 324 322 322 326 327 325 319 320 316 316 308 305 304 296 298 288 286 285 285 289 290
203 250 295 275 267 274 271 256 247 246 242 246 258 271 276 284 318 309 316 318 314 323 325 323 319 321 325 323 321 321 317 317 316 307 299 299 301 298 277 285 282 278 275 268
197 202 195 263 14 318 277 243 236 240 231 234 245 257 279 291 310 312 312 309 315 323 321 319 316 316 317 319 321 318 316 315 312 304 302 301 298 294 288 279 276 274 274 266
192 181 162 267 22 252 327 324 247 249 223 225 245 261 275 300 301 315 294 326 326 322 318 318 317 316 318 320 319 318 314 313 309 306 303 299 300 296 302 296 274 270 268 266
211 177 196 231 204 305 296 217 211 203 244 232 242 258 272 291 313 285 14 346 318 317 318 317 316 317 318 318 323 321 315 311 313 308 307 306 300 293 292 286 282 267 266 258
199 205 209 160 223 242 90 132 101 135 270 217 212 209 267 306 292 305 346 332 322 317 321 325 322 321 319 324 322 320 317 317 313 317 308 305 302 295 289 283 283 263 252 264
188 191 222 214 231 269 245 153 141 168 259 154 184 241 254 246 281 315 325 326 325 323 326 324 328 324 323 323 324 323 318 318 319 315 313 307 300 293 284 279 274 254 252 254
176 180 197 205 218 254 182 141 204 184 155 202 229 238 235 272 302 308 318 321 325 328 327 330 325 325 322 325 326 323 322 322 320 319 313 307 300 289 278 273 275 249 237 241
203 199 182 202 206 125 168 196 210 143 226 237 209 161 222 280 296 308 316 320 324 323 324 328 327 322 322 325 328 326 325 323 325 320 316 315 316 314 302 266 267 249 237 240
228 215 232 184 221 240 212 239 251 206 231 165 158 162 178 269 303 304 313 325 325 326 330 332 330 325 320 326 327 328 326 328 325 323 323 328 328 325 320 282 263 250 243 230
182 172 208 246 252 251 237 230 227 184 166 155 143 166 204 266 298 309 318 324 322 324 332 333 327 323 319 324 327 331 333 331 326 327 331 338 334 335 331 333 285 285 252 239
187 179 199 217 215 219 214 213 194 165 187 185 178 175 186 217 296 318 314 320 320 329 334 331 328 325 324 326 328 333 339 335 330 331 337 342 340 342 341 340 338 304 258 252